User: anonymous   Login
Location: Altleiningen
(49.5078°N, 8.0741°E)
Time: 05:22:44
(UTC+00:00)
Language:

Terra - Orbit

View from above orbital plane
View from above orbital plane
View from above satellite
View from above satellite

Ground track
Ground track

The orbit data is extracted from the following two-line orbital elements,

1 25994U 99068A   21128.46747865  .00000058  00000-0  22757-4 0  9992
2 25994  98.1770 203.6200 0001424  99.2906 317.1995 14.57129037137647
Epoch (UTC): 08 May 2021 11:13:10
Eccentricity: 0.0001424
inclination: 98.1770°
perigee height: 701 km
apogee height: 703 km
right ascension of ascending node: 203.6200°
argument of perigee: 99.2906°
revolutions per day: 14.57129037
mean anomaly at epoch: 317.1995°
orbit number at epoch: 13764

The dashed part of the orbit path shows where the satellite is in the earth's shadow,  

DLR